RH
98 100 100 100 98 98 98 97 97 97 98 96 96 98 96 95 89 100 96 97 100 100 100 99 93 84 85 77 71 65 64 66 73 80 79 78 72 80 88 92 91 87 86
99 100 100 99 100 99 98 98 95 94 97 97 96 96 96 95 90 95 99 98 100 99 100 100 99 97 90 84 80 74 67 65 66 67 70 76 78 72 73 80 88 91 92
100 100 100 100 100 100 100 99 95 95 96 99 96 94 95 93 94 76 99 97 99 97 98 99 98 97 92 91 88 82 72 63 64 58 60 70 78 75 78 81 84 86 74
100 100 100 100 100 100 100 100 98 95 96 97 97 97 94 94 92 91 100 99 100 99 98 97 95 97 95 94 93 88 83 80 71 67 67 68 72 77 73 75 82 76 74
100 100 100 100 100 100 100 100 99 98 97 96 97 96 96 96 95 95 89 100 98 98 96 96 97 97 95 94 94 91 87 87 85 81 78 76 74 78 80 77 79 72 70
100 99 100 100 100 100 100 99 100 100 99 98 98 96 95 96 92 93 90 100 100 99 98 98 96 95 95 94 88 87 85 86 87 83 82 80 78 70 68 70 71 82 89
100 98 98 99 100 100 100 100 98 99 100 99 95 96 95 96 96 98 93 91 80 96 96 98 98 100 95 96 96 93 87 82 79 82 83 82 78 75 75 76 77 78 77
98 98 98 98 98 98 98 98 97 100 100 99 97 95 95 95 96 98 96 99 98 98 97 97 98 98 100 100 100 100 97 85 88 86 83 78 79 68 71 71 74 83 88
96 98 98 98 97 97 97 97 97 98 99 100 100 99 97 96 97 98 100 100 100 100 99 98 99 99 100 100 100 100 100 100 93 90 94 80 79 75 77 93 93 100 100
97 97 98 97 97 97 97 97 97 98 99 99 100 100 100 98 99 96 100 100 99 99 100 99 100 98 99 98 100 100 99 99 100 100 99 92 94 98 98 98 92 99 96
98 97 97 97 97 97 97 97 97 98 99 98 99 100 100 100 99 100 99 100 97 98 98 99 99 98 95 98 97 100 98 99 100 100 100 100 100 100 100 100 97 95 96
98 97 97 97 97 97 97 96 97 98 97 97 98 98 100 100 100 98 100 97 76 75 99 98 97 99 100 99 100 100 100 100 100 100 100 100 100 100 99 99 99 100 98
98 97 97 97 97 97 97 96 96 96 95 96 96 96 97 100 100 99 99 99 96 93 90 97 100 99 100 100 99 100 100 100 100 100 100 99 98 98 100 100 100 100 100
97 97 97 96 96 96 97 97 96 95 95 95 94 95 97 98 100 100 100 100 100 100 100 99 99 98 100 100 100 100 100 100 99 99 100 99 100 100 100 100 100 100 100
99 97 96 96 97 96 96 97 97 97 97 97 97 97 96 96 99 100 100 100 100 98 100 100 100 100 100 100 100 100 100 100 100 99 100 100 100 100 100 100 100 100 99
100 98 96 97 96 96 96 93 95 97 96 97 97 98 98 98 98 99 100 100 100 99 98 99 100 100 100 100 100 100 100 100 99 100 100 100 100 100 100 100 100 99 99
100 98 93 96 97 96 95 95 93 89 94 96 97 97 97 97 97 98 99 100 99 95 98 99 98 100 100 100 100 100 100 100 100 100 100 100 100 100 100 100 100 100 100
94 97 96 99 99 96 96 96 96 95 94 93 97 97 96 97 97 97 98 96 94 96 97 98 98 99 100 98 100 99 100 100 100 100 100 100 100 100 100 100 100 100 100
90 99 98 100 99 94 97 96 96 95 95 95 94 93 97 97 97 97 98 96 95 95 96 97 98 98 98 100 100 99 99 98 99 100 100 100 100 99 100 100 100 100 99
73 95 95 100 100 98 98 98 95 95 95 95 94 96 96 95 94 95 97 96 96 97 97 97 98 98 97 98 98 98 99 100 100 99 99 99 100 99 99 99 99 98 99
66 84 98 100 100 100 100 100 99 97 96 96 97 97 96 96 96 96 97 96 97 97 97 96 97 96 96 97 97 97 98 98 98 98 98 98 98 98 98 98 98 98 98
63 72 86 100 100 100 99 100 100 100 100 99 99 99 98 98 97 97 97 97 97 97 96 96 97 97 97 96 97 97 97 97 97 97 97 97 98 98 98 98 98 98 98
60 63 71 89 100 99 100 100 100 100 100 100 100 100 100 100 100 100 98 96 96 96 96 96 96 97 97 96 96 96 96 97 97 97 96 97 97 97 97 97 97 97 97
62 60 71 84 100 100 100 100 100 100 100 100 100 100 100 100 98 100 100 98 96 96 97 98 100 98 97 97 97 97 97 96 94 93 91 91 94 95 94 95 96 97 96
70 68 70 84 83 98 100 100 100 100 100 100 100 100 98 96 96 97 98 98 97 97 100 98 98 99 100 100 99 100 100 98 91 93 90 93 95 96 96 97 95 95 94
77 81 78 83 82 92 94 100 100 100 100 100 99 97 97 97 96 96 98 98 98 98 98 99 97 95 95 96 98 100 100 100 94 85 87 91 94 94 93 91 93 94 94
Wind_Speed
34 34 32 30 30 30 30 32 34 36 36 37 36 34 33 34 45 41 45 41 42 40 41 40 39 38 35 37 40 41 39 33 15 15 29 36 21 33 42 39 38 37 36
35 36 34 32 33 32 32 33 34 36 36 37 38 39 36 37 38 36 41 42 43 42 40 41 42 39 37 37 38 37 38 39 27 16 24 25 30 26 28 35 37 37 36
35 35 36 35 34 33 33 36 34 35 37 37 38 41 39 38 34 44 49 46 44 46 44 44 43 39 39 36 37 38 39 40 37 24 21 23 28 27 26 29 32 33 31
36 35 35 36 36 37 37 37 36 36 36 38 38 41 41 39 37 39 42 46 43 46 45 45 44 43 43 40 39 38 36 33 35 30 23 23 29 29 26 31 30 32 31
36 36 36 37 37 38 39 36 38 37 37 38 38 40 41 39 38 39 41 48 44 41 43 44 44 44 44 41 37 36 35 33 29 28 22 18 21 21 29 30 28 31 31
35 36 38 37 37 37 38 38 38 38 37 37 39 39 40 39 40 42 43 31 41 41 41 42 41 45 47 45 42 38 39 37 31 29 27 23 26 30 35 33 30 22 8
34 35 36 37 37 39 38 38 37 37 37 36 38 38 40 42 42 41 45 52 48 44 43 40 40 43 50 49 45 45 43 43 40 35 29 27 28 34 30 27 30 24 23
34 35 36 38 39 39 40 37 38 36 34 34 35 38 39 39 42 41 40 54 47 47 46 43 41 40 47 44 43 44 44 46 45 41 39 39 38 38 37 34 32 28 23
35 37 39 40 39 40 38 39 41 36 32 31 31 34 38 39 38 39 44 38 35 37 42 44 44 40 42 48 42 38 37 39 48 46 44 40 40 35 32 27 24 20 10
38 40 41 39 36 37 38 38 36 36 29 28 21 25 31 34 30 38 38 34 32 36 36 40 45 43 42 48 46 38 35 38 36 41 41 38 37 34 29 29 28 23 12
40 40 39 38 37 35 39 38 37 34 28 25 19 12 9 26 37 30 44 36 32 20 32 35 38 49 44 50 50 39 40 35 39 39 38 37 36 33 30 29 28 29 27
40 38 37 36 35 34 36 37 38 35 29 25 22 18 17 8 15 30 38 53 47 38 31 32 36 46 51 48 49 42 38 39 34 32 29 29 31 33 33 31 31 31 29
37 37 36 37 36 36 34 34 33 34 32 26 24 21 22 21 9 14 24 39 46 39 40 33 35 44 51 49 47 43 37 36 31 27 27 30 35 35 34 31 30 30 28
35 35 34 33 37 36 34 31 30 31 31 30 28 25 25 23 20 6 10 31 42 37 38 38 42 45 47 44 42 43 39 36 37 33 31 33 31 30 30 30 30 28 26
34 34 31 30 33 35 35 30 30 31 37 35 34 26 26 23 29 20 9 19 26 31 31 31 28 34 31 28 29 35 34 36 34 32 30 27 26 28 29 30 29 29 18
31 32 30 31 32 31 32 35 37 37 38 39 38 38 30 37 29 31 31 25 25 26 22 17 12 14 22 18 28 28 29 34 31 28 27 28 29 29 29 28 27 27 24
30 30 28 29 30 31 31 30 29 42 40 42 45 43 44 42 40 29 32 45 31 41 28 24 22 17 20 17 20 19 17 24 28 28 28 28 27 27 26 25 24 22 16
30 28 27 27 28 28 28 28 28 27 28 37 41 44 46 45 44 43 35 47 39 41 31 28 26 25 18 23 25 22 19 14 15 18 19 20 22 23 21 19 20 18 19
27 28 27 26 26 28 27 28 28 27 27 29 34 42 41 37 40 42 49 40 31 32 32 33 33 29 25 28 29 29 26 25 22 20 18 18 18 20 19 19 17 18 20
28 25 26 27 26 27 27 26 27 27 27 27 29 32 35 36 38 36 39 37 31 35 35 32 34 32 31 29 32 31 30 28 29 28 26 22 21 22 23 21 20 19 17
27 25 23 25 25 25 25 25 25 26 26 27 28 33 34 30 29 31 32 33 31 32 32 31 32 33 34 32 32 34 33 32 31 30 29 28 26 25 23 22 21 20 19
25 24 24 22 20 23 24 23 24 24 25 27 28 30 33 33 31 30 31 32 32 35 35 32 31 33 33 33 31 31 31 30 29 27 27 26 25 23 22 21 20 18 16
24 24 23 23 19 21 21 23 23 24 24 24 25 27 30 30 30 31 31 32 33 33 33 34 33 33 33 31 28 26 26 24 22 19 19 20 20 19 17 17 15 15 14
20 22 22 22 19 19 19 21 22 22 23 24 25 27 28 29 30 30 31 29 30 31 30 29 29 28 27 27 26 22 20 18 15 15 14 16 16 15 15 15 13 11 11
18 19 20 20 21 20 21 21 22 22 22 22 25 27 26 28 28 27 28 28 26 27 27 27 26 24 24 23 22 20 17 17 14 13 13 15 16 15 14 13 12 12 12
15 16 16 17 20 19 20 20 21 21 22 22 23 24 22 24 24 23 24 25 22 23 23 23 23 23 23 23 20 18 17 17 15 12 11 14 16 15 14 13 13 13 12
Wind_Direction
322 319 315 311 306 300 294 291 290 288 285 282 278 274 271 271 259 236 215 211 206 207 208 205 209 207 208 209 211 214 216 214 208 214 219 215 217 227 230 229 233 235 238
320 318 315 310 306 301 295 292 291 286 283 279 277 273 268 262 265 269 213 212 203 207 204 204 213 204 210 209 210 211 213 218 215 197 208 212 219 226 231 229 230 234 237
319 316 314 311 307 304 298 296 291 286 281 275 271 267 266 264 264 259 224 214 207 209 205 206 211 203 207 208 209 212 212 218 216 214 205 211 214 218 220 225 229 233 237
317 316 313 310 307 306 301 296 292 287 279 274 267 263 260 259 256 255 250 207 208 207 207 207 208 206 206 206 204 207 208 210 211 213 211 207 213 216 216 220 225 229 233
317 316 312 310 308 306 304 297 294 287 279 272 266 259 257 252 245 244 244 217 207 202 205 207 208 208 208 205 203 206 206 206 207 210 213 197 199 202 211 218 224 228 234
318 314 312 312 311 308 306 303 298 290 281 272 262 255 253 249 242 238 233 225 203 200 202 206 207 207 206 207 209 213 208 202 200 199 205 204 205 211 216 216 218 219 239
318 315 314 314 313 313 312 306 300 293 285 272 263 254 248 246 243 243 239 233 228 215 206 201 203 204 211 214 218 217 215 214 214 208 204 207 211 214 214 208 217 215 222
319 320 320 320 318 318 315 309 305 299 288 279 263 253 247 242 238 243 251 219 210 206 204 202 205 206 206 204 201 204 210 218 223 215 222 224 230 230 229 232 232 230 234
325 324 324 322 319 320 318 315 313 307 298 287 266 250 242 239 233 235 232 213 213 201 202 201 202 203 201 201 199 201 205 213 223 227 223 225 226 231 236 227 214 202 208
327 324 323 322 322 323 322 319 316 317 307 304 287 252 241 238 233 234 230 212 219 199 195 202 200 203 203 211 203 204 201 206 206 211 215 223 230 232 229 226 223 195 181
327 326 326 328 330 331 328 328 329 329 324 328 328 324 286 236 229 239 221 203 213 240 191 201 205 207 211 217 213 205 206 201 204 208 208 213 219 221 213 216 219 219 209
330 329 329 333 335 337 335 336 339 340 341 343 349 354 1 0 219 236 221 219 221 224 208 200 206 205 204 210 213 208 206 202 199 197 191 193 200 209 216 220 222 227 234
332 331 333 338 342 344 341 339 343 346 353 354 359 -0 1 359 1 216 209 213 207 213 226 201 200 204 203 211 214 210 204 193 187 183 184 195 210 216 217 214 216 224 229
334 333 338 342 346 346 346 348 348 350 359 359 5 3 0 3 6 13 164 196 208 214 214 199 200 203 200 201 206 203 192 188 189 189 192 205 208 210 211 213 210 212 211
337 335 341 345 347 347 347 350 354 0 7 12 12 5 12 10 12 28 119 148 183 203 189 177 181 187 188 187 189 183 180 186 188 194 194 196 205 209 207 207 210 198 193
339 337 347 348 347 349 350 348 359 6 7 13 19 23 25 33 27 40 63 78 119 147 107 64 93 150 151 168 165 168 176 185 193 198 202 205 203 202 203 199 200 200 191
341 339 350 348 349 351 350 354 353 355 8 10 13 18 27 33 35 37 59 68 63 90 76 72 51 48 84 122 139 151 158 179 186 195 197 198 200 198 191 187 190 189 180
346 348 355 350 351 354 351 355 356 360 359 357 6 16 19 23 30 36 52 64 51 54 57 61 59 47 53 78 85 97 114 133 153 173 180 187 187 177 168 163 167 163 163
352 347 354 352 355 358 356 360 360 -0 5 1 6 16 15 18 30 31 42 48 47 51 51 54 54 53 48 66 73 80 82 91 103 111 125 142 153 154 142 152 153 154 152
359 358 358 353 355 359 360 2 1 0 4 7 9 17 14 18 24 23 34 37 37 45 47 47 54 56 57 60 70 74 78 77 82 89 94 101 116 124 119 122 122 125 128
3 359 2 0 358 358 359 359 2 3 4 5 9 12 24 27 23 25 30 33 34 43 48 51 55 61 67 67 70 74 74 76 80 84 87 94 97 99 108 111 113 115 118
8 6 7 2 358 1 3 0 2 5 7 4 6 11 19 24 23 24 29 32 39 51 57 57 56 61 64 67 70 72 73 75 78 82 86 90 93 95 98 101 103 106 109
6 9 12 11 5 7 4 6 4 4 6 8 8 11 14 16 18 24 30 39 48 56 60 62 61 62 63 63 63 65 69 69 73 81 87 90 92 95 97 98 102 106 106
5 6 9 12 9 7 6 5 8 12 9 8 9 17 13 22 23 28 38 44 50 52 53 56 57 56 57 58 56 59 64 70 76 79 87 96 99 102 104 105 105 108 114
3 3 5 9 10 9 6 9 11 15 11 11 12 17 23 30 32 33 38 44 51 50 52 53 53 54 57 57 57 57 60 66 80 80 82 96 100 98 100 102 107 112 114
355 357 357 1 6 9 9 7 8 13 9 15 21 19 25 28 29 31 35 42 51 54 53 54 52 51 54 55 52 56 56 59 68 76 80 95 96 96 98 98 106 107 108